AUA166D EDDL-LOWW

Flight info

Callsign AUA166D
Flight time N/A
Altitude 33000
Route DODEN7Z DODEN Y853 BOMBI/N0414F350 DCT ESATI DCT BARSU DCT EKSOS DCT LULAR DCT RUDAP DCT BUDEX BUDEX2W
Aircraft A321/M-SDE2E3FGIJ1RWXY/LB1

Departure

Time 2026-05-04 19:41
Airport Düsseldorf Airport (EDDL)

Arrival

Time N/A
Airport Vienna International Airport (LOWW)
Time Latitude Longitude Altitude Speed Heading
2026-05-04 19:07 51.27561 6.75981 136 ft 0 kts 62°
2026-05-04 19:23 51.27562 6.75984 136 ft 2 kts 63°
2026-05-04 19:23 51.27581 6.76037 136 ft 9 kts 49°
2026-05-04 19:24 51.27656 6.76040 136 ft 10 kts 359°
2026-05-04 19:24 51.27678 6.76040 136 ft 0 kts
2026-05-04 19:24 51.27680 6.76040 136 ft 2 kts
2026-05-04 19:25 51.27722 6.76042 136 ft 10 kts
2026-05-04 19:25 51.27818 6.76044 136 ft 17 kts
2026-05-04 19:25 51.27941 6.76048 136 ft 13 kts
2026-05-04 19:25 51.27990 6.76047 136 ft 5 kts 359°
2026-05-04 19:26 51.28014 6.76047 135 ft 0 kts
2026-05-04 19:27 51.28043 6.76048 135 ft 7 kts
2026-05-04 19:27 51.28049 6.76048 135 ft 0 kts
2026-05-04 19:31 51.28064 6.76048 135 ft 5 kts 358°
2026-05-04 19:31 51.28125 6.76034 135 ft 13 kts 23°
2026-05-04 19:31 51.28203 6.76177 134 ft 24 kts 52°
2026-05-04 19:31 51.28321 6.76424 132 ft 30 kts 52°
2026-05-04 19:32 51.28451 6.76695 132 ft 29 kts 53°
2026-05-04 19:32 51.28583 6.76973 135 ft 31 kts 52°
2026-05-04 19:32 51.28689 6.77195 135 ft 23 kts 53°
2026-05-04 19:32 51.28790 6.77407 135 ft 23 kts 53°
2026-05-04 19:33 51.28889 6.77615 135 ft 25 kts 53°
2026-05-04 19:33 51.28991 6.77829 136 ft 23 kts 52°
2026-05-04 19:33 51.29077 6.78009 136 ft 15 kts 53°
2026-05-04 19:33 51.29125 6.78112 139 ft 8 kts 52°
2026-05-04 19:34 51.29152 6.78169 141 ft 7 kts 52°
2026-05-04 19:34 51.29195 6.78259 144 ft 13 kts 53°
2026-05-04 19:34 51.29259 6.78392 150 ft 16 kts 53°
2026-05-04 19:34 51.29323 6.78529 155 ft 15 kts 46°
2026-05-04 19:35 51.29372 6.78571 157 ft 0 kts
2026-05-04 19:36 51.29374 6.78572 157 ft 2 kts
2026-05-04 19:36 51.29421 6.78571 158 ft 3 kts 355°
2026-05-04 19:40 51.29427 6.78570 158 ft 4 kts 355°
2026-05-04 19:40 51.29481 6.78563 158 ft 12 kts 355°
2026-05-04 19:40 51.29542 6.78528 160 ft 8 kts 261°
2026-05-04 19:40 51.29529 6.78491 158 ft 0 kts 232°
2026-05-04 19:41 51.29491 6.78412 155 ft 41 kts 233°
2026-05-04 19:41 51.29113 6.77614 138 ft 134 kts 232°
2026-05-04 19:41 51.28451 6.76233 602 ft 159 kts 231°
2026-05-04 19:41 51.27781 6.74831 1583 ft 162 kts 231°
2026-05-04 19:42 51.27093 6.73337 2140 ft 174 kts 232°
2026-05-04 19:42 51.26341 6.71718 2672 ft 189 kts 232°
2026-05-04 19:42 51.25505 6.69920 3163 ft 212 kts 232°
2026-05-04 19:42 51.24586 6.67938 3789 ft 231 kts 232°
2026-05-04 19:43 51.23582 6.65823 4520 ft 247 kts 229°
2026-05-04 19:43 51.22216 6.64077 5285 ft 259 kts 205°
2026-05-04 19:43 51.20446 6.63483 6207 ft 265 kts 180°
2026-05-04 19:43 51.18594 6.63747 7147 ft 269 kts 173°
2026-05-04 19:44 51.16725 6.64148 8075 ft 274 kts 169°
2026-05-04 19:44 51.14961 6.65239 8941 ft 279 kts 147°
2026-05-04 19:44 51.13607 6.67436 9573 ft 283 kts 126°
2026-05-04 19:44 51.12964 6.70422 10022 ft 294 kts 99°
2026-05-04 19:45 51.13010 6.73782 10518 ft 314 kts 89°
2026-05-04 19:45 51.13203 6.77332 11037 ft 329 kts 88°
2026-05-04 19:45 51.13391 6.81038 11585 ft 343 kts 88°
2026-05-04 19:45 51.13562 6.84885 12123 ft 349 kts 89°
2026-05-04 19:46 51.13719 6.88598 12985 ft 332 kts 89°
2026-05-04 19:46 51.13862 6.92283 13839 ft 335 kts 89°
2026-05-04 19:46 51.14004 6.96011 14583 ft 339 kts 89°
2026-05-04 19:46 51.14144 6.99774 15325 ft 342 kts 89°
2026-05-04 19:47 51.14280 7.03579 16071 ft 346 kts 89°
2026-05-04 19:47 51.14416 7.07427 16811 ft 350 kts 89°
2026-05-04 19:47 51.14553 7.11319 17546 ft 354 kts 89°
2026-05-04 19:47 51.14691 7.15262 18152 ft 362 kts 89°
2026-05-04 19:48 51.14828 7.19334 18599 ft 372 kts 89°
2026-05-04 19:48 51.14972 7.23490 19075 ft 380 kts 89°
2026-05-04 19:48 51.15113 7.27726 19575 ft 386 kts 89°
2026-05-04 19:48 51.15256 7.32026 20080 ft 392 kts 89°
2026-05-04 19:49 51.15385 7.36383 20598 ft 396 kts 91°
2026-05-04 19:49 51.15187 7.40769 21125 ft 397 kts 103°
2026-05-04 19:49 51.14371 7.44956 21661 ft 397 kts 117°
2026-05-04 19:49 51.12953 7.48695 22193 ft 395 kts 131°
2026-05-04 19:50 51.11069 7.51887 22741 ft 396 kts 139°
2026-05-04 19:50 51.09046 7.54920 23180 ft 402 kts 140°
2026-05-04 19:50 51.06985 7.57987 23602 ft 409 kts 140°
2026-05-04 19:50 51.04908 7.61110 23965 ft 414 kts 140°
2026-05-04 19:51 51.02809 7.64285 24320 ft 419 kts 140°
2026-05-04 19:51 51.00688 7.67495 24690 ft 423 kts 140°
2026-05-04 19:51 50.98544 7.70740 25061 ft 428 kts 140°
2026-05-04 19:51 50.96306 7.73858 25429 ft 428 kts 146°
2026-05-04 19:52 50.93824 7.76480 25817 ft 429 kts 151°
2026-05-04 19:52 50.91279 7.78977 26199 ft 431 kts 152°
2026-05-04 19:52 50.88717 7.81473 26605 ft 433 kts 152°
2026-05-04 19:52 50.86143 7.83987 26995 ft 435 kts 152°
2026-05-04 19:53 50.83583 7.86493 27395 ft 433 kts 152°
2026-05-04 19:53 50.81012 7.89014 27803 ft 435 kts 152°
2026-05-04 19:53 50.78424 7.91549 28216 ft 437 kts 152°
2026-05-04 19:53 50.75840 7.94072 28636 ft 438 kts 152°
2026-05-04 19:54 50.73246 7.96616 29056 ft 438 kts 152°
2026-05-04 19:54 50.70654 7.99145 29448 ft 439 kts 152°
2026-05-04 19:54 50.68054 8.01680 29879 ft 439 kts 152°
2026-05-04 19:54 50.65455 8.04214 30270 ft 440 kts 152°
2026-05-04 19:55 50.62849 8.06749 30638 ft 440 kts 153°
2026-05-04 19:55 50.60271 8.09355 31018 ft 441 kts 149°
2026-05-04 19:55 50.57891 8.12325 31400 ft 443 kts 144°
2026-05-04 19:55 50.55495 8.15477 31796 ft 443 kts 144°
2026-05-04 19:56 50.53133 8.18582 32207 ft 442 kts 145°
2026-05-04 19:56 50.50779 8.21671 32601 ft 440 kts 145°
2026-05-04 19:56 50.49227 8.23712 32869 ft 440 kts 145°
2026-05-04 19:56 50.46882 8.26779 33277 ft 438 kts 145°
2026-05-04 19:57 50.44537 8.29834 33695 ft 437 kts 146°
2026-05-04 19:57 50.42198 8.32884 34096 ft 436 kts 146°
2026-05-04 19:57 50.39872 8.35919 34422 ft 434 kts 145°
2026-05-04 19:57 50.36802 8.39920 34882 ft 433 kts 145°
2026-05-04 19:58 50.35231 8.41962 34989 ft 436 kts 145°
2026-05-04 19:58 50.30506 8.48065 35023 ft 443 kts 145°
2026-05-04 19:59 50.25749 8.54216 35068 ft 444 kts 145°
2026-05-04 19:59 50.23367 8.57288 35250 ft 445 kts 145°
2026-05-04 19:59 50.21159 8.60713 35489 ft 453 kts 132°
2026-05-04 19:59 50.19598 8.64963 35731 ft 462 kts 117°
2026-05-04 20:00 50.18458 8.69682 35988 ft 465 kts 114°
2026-05-04 20:00 50.17359 8.74422 36250 ft 465 kts 115°
2026-05-04 20:00 50.16230 8.79144 36516 ft 464 kts 115°
2026-05-04 20:00 50.15076 8.83836 36790 ft 463 kts 116°
2026-05-04 20:01 50.13899 8.88508 37007 ft 463 kts 116°
2026-05-04 20:01 50.11555 8.97850 37017 ft 462 kts 115°
2026-05-04 20:02 50.09222 9.07183 36995 ft 462 kts 115°
2026-05-04 20:02 50.06911 9.16518 36974 ft 463 kts 114°
2026-05-04 20:03 50.05427 9.26351 36987 ft 470 kts 103°
2026-05-04 20:03 50.04323 9.36358 36987 ft 469 kts 103°
2026-05-04 20:04 50.03190 9.46355 36986 ft 469 kts 104°
2026-05-04 20:04 50.02019 9.56319 36986 ft 468 kts 104°
2026-05-04 20:05 50.00838 9.66280 36980 ft 469 kts 104°
2026-05-04 20:05 49.99667 9.76251 36985 ft 468 kts 104°
2026-05-04 20:06 49.98497 9.86214 36986 ft 469 kts 104°
2026-05-04 20:06 49.97316 9.96172 36975 ft 468 kts 104°
2026-05-04 20:07 49.96123 10.06106 36955 ft 468 kts 104°
2026-05-04 20:07 49.94915 10.16078 36965 ft 471 kts 104°
2026-05-04 20:08 49.93692 10.26065 36961 ft 471 kts 104°
2026-05-04 20:08 49.92463 10.36040 36962 ft 470 kts 105°
2026-05-04 20:09 49.90430 10.45562 36960 ft 464 kts 116°
2026-05-04 20:09 49.88026 10.54872 36949 ft 466 kts 115°
2026-05-04 20:10 49.85622 10.64224 36953 ft 467 kts 116°
2026-05-04 20:10 49.83192 10.73550 36957 ft 466 kts 116°
2026-05-04 20:11 49.80764 10.82861 36951 ft 466 kts 116°
2026-05-04 20:11 49.78318 10.92150 36924 ft 466 kts 116°
2026-05-04 20:12 49.75880 11.01393 36934 ft 467 kts 116°
2026-05-04 20:12 49.73423 11.10683 36933 ft 467 kts 116°
2026-05-04 20:13 49.70962 11.19956 36937 ft 466 kts 116°
2026-05-04 20:13 49.68490 11.29222 36940 ft 467 kts 116°
2026-05-04 20:14 49.66013 11.38475 36931 ft 465 kts 116°
2026-05-04 20:14 49.63902 11.47957 36952 ft 468 kts 111°
2026-05-04 20:15 49.61926 11.57516 36963 ft 467 kts 111°
2026-05-04 20:15 49.59934 11.67063 36974 ft 467 kts 111°
2026-05-04 20:16 49.57955 11.76527 36969 ft 467 kts 111°
2026-05-04 20:16 49.55948 11.86046 36994 ft 466 kts 111°
2026-05-04 20:17 49.53947 11.95540 36990 ft 466 kts 111°
2026-05-04 20:17 49.51932 12.05026 36976 ft 467 kts 111°
2026-05-04 20:18 49.49904 12.14515 36959 ft 467 kts 111°
2026-05-04 20:18 49.47873 12.23993 36927 ft 468 kts 111°
2026-05-04 20:19 49.45822 12.33487 36932 ft 468 kts 111°
2026-05-04 20:19 49.43771 12.42973 36928 ft 467 kts 111°
2026-05-04 20:20 49.41702 12.52462 36931 ft 468 kts 111°
2026-05-04 20:20 49.39660 12.61832 36920 ft 457 kts 111°
2026-05-04 20:21 49.37630 12.71068 36929 ft 456 kts 111°
2026-05-04 20:21 49.34421 12.84723 36932 ft 455 kts 113°
2026-05-04 20:22 49.32197 12.93809 36932 ft 455 kts 113°
2026-05-04 20:22 49.29954 13.02938 36933 ft 455 kts 114°
2026-05-04 20:23 49.27731 13.11952 36936 ft 455 kts 114°
2026-05-04 20:23 49.25478 13.21077 36936 ft 455 kts 114°
2026-05-04 20:24 49.23175 13.30034 36935 ft 455 kts 115°
2026-05-04 20:24 49.20776 13.38980 36931 ft 454 kts 115°
2026-05-04 20:25 49.18371 13.47933 36940 ft 456 kts 115°
2026-05-04 20:25 49.15950 13.56873 36937 ft 454 kts 115°
2026-05-04 20:26 49.13529 13.65777 36906 ft 454 kts 115°
2026-05-04 20:26 49.12314 13.70236 36722 ft 453 kts 115°
2026-05-04 20:26 49.11103 13.74686 36474 ft 453 kts 115°
2026-05-04 20:27 49.09896 13.79123 36223 ft 453 kts 115°
2026-05-04 20:27 49.08676 13.83562 35956 ft 453 kts 115°
2026-05-04 20:27 49.07455 13.88006 35701 ft 454 kts 116°
2026-05-04 20:27 49.06232 13.92444 35446 ft 454 kts 115°
2026-05-04 20:28 49.05011 13.96891 35197 ft 454 kts 116°
2026-05-04 20:28 49.03805 14.01268 34950 ft 454 kts 116°
2026-05-04 20:28 49.02582 14.05699 34693 ft 454 kts 116°
2026-05-04 20:28 49.01355 14.10116 34465 ft 454 kts 116°
2026-05-04 20:29 49.00123 14.14563 34213 ft 454 kts 116°
2026-05-04 20:29 48.98893 14.18988 33967 ft 453 kts 116°
2026-05-04 20:29 48.97660 14.23410 33679 ft 457 kts 116°
2026-05-04 20:29 48.96196 14.27742 33411 ft 463 kts 122°
2026-05-04 20:30 48.94593 14.31993 33141 ft 464 kts 123°
2026-05-04 20:30 48.92973 14.36262 32855 ft 466 kts 122°
2026-05-04 20:30 48.91359 14.40540 32596 ft 466 kts 122°
2026-05-04 20:30 48.89753 14.44815 32341 ft 467 kts 122°
2026-05-04 20:31 48.88144 14.49112 32076 ft 468 kts 122°
2026-05-04 20:31 48.86533 14.53422 31811 ft 469 kts 122°
2026-05-04 20:31 48.84917 14.57725 31557 ft 469 kts 122°
2026-05-04 20:31 48.83291 14.62036 31294 ft 471 kts 122°
2026-05-04 20:32 48.81665 14.66358 30976 ft 471 kts 122°
2026-05-04 20:32 48.80035 14.70669 30508 ft 472 kts 122°
2026-05-04 20:32 48.78403 14.74982 29949 ft 471 kts 122°
2026-05-04 20:32 48.76767 14.79297 29268 ft 473 kts 122°
2026-05-04 20:33 48.75122 14.83623 28593 ft 475 kts 122°
2026-05-04 20:33 48.73470 14.87966 27917 ft 476 kts 121°
2026-05-04 20:33 48.71815 14.92322 27261 ft 478 kts 121°
2026-05-04 20:33 48.70149 14.96690 26615 ft 480 kts 121°
2026-05-04 20:34 48.68502 15.01030 25993 ft 483 kts 121°
2026-05-04 20:34 48.66819 15.05443 25376 ft 485 kts 121°
2026-05-04 20:34 48.65129 15.09866 24774 ft 487 kts 121°
2026-05-04 20:34 48.63466 15.14334 24191 ft 489 kts 118°
2026-05-04 20:35 48.62013 15.18986 23633 ft 487 kts 116°
2026-05-04 20:35 48.60605 15.23631 22965 ft 482 kts 116°
2026-05-04 20:35 48.59211 15.28200 22242 ft 476 kts 116°
2026-05-04 20:35 48.57822 15.32712 21535 ft 471 kts 116°
2026-05-04 20:36 48.56445 15.37159 20846 ft 465 kts 116°
2026-05-04 20:36 48.55076 15.41559 20163 ft 460 kts 116°
2026-05-04 20:36 48.53808 15.45963 19494 ft 456 kts 109°
2026-05-04 20:36 48.53025 15.50576 18857 ft 451 kts 104°
2026-05-04 20:37 48.52345 15.55098 18239 ft 446 kts 104°
2026-05-04 20:37 48.51635 15.59694 17511 ft 441 kts 104°
2026-05-04 20:37 48.50929 15.64111 16809 ft 437 kts 105°
2026-05-04 20:37 48.50213 15.68547 16122 ft 433 kts 105°
2026-05-04 20:38 48.49498 15.72932 15448 ft 429 kts 105°
2026-05-04 20:38 48.48787 15.77283 14783 ft 426 kts 105°
2026-05-04 20:38 48.48079 15.81600 14141 ft 422 kts 106°
2026-05-04 20:38 48.47377 15.85866 13493 ft 418 kts 106°
2026-05-04 20:39 48.46679 15.90095 12822 ft 413 kts 106°
2026-05-04 20:39 48.45980 15.94273 12177 ft 409 kts 106°
2026-05-04 20:39 48.45293 15.98405 11547 ft 405 kts 105°
2026-05-04 20:39 48.44608 16.02495 10932 ft 400 kts 105°
2026-05-04 20:40 48.43936 16.06537 10338 ft 396 kts 105°
2026-05-04 20:40 48.43266 16.10534 9739 ft 391 kts 105°
2026-05-04 20:40 48.42795 16.13145 9304 ft 389 kts 109°
2026-05-04 20:40 48.41772 16.16947 8650 ft 384 kts 117°
2026-05-04 20:41 48.40576 16.20460 8032 ft 380 kts 119°
2026-05-04 20:41 48.39313 16.23974 7374 ft 374 kts 120°
2026-05-04 20:41 48.38082 16.27337 6570 ft 368 kts 120°
2026-05-04 20:41 48.36841 16.30681 5655 ft 364 kts 121°